Weather in Buka

Papua New Guinea     5°25′20″S   154°40′34″E
temp.,
°C
wind,
m/s
gust,
m/s
humid.,
%
clouds,
%
prec.,
mm/h
press.,
hPa
HPBL,
m
12 may, wed
wed1201:00+26ese1180100 0.0 1009243
04:00+26e2278100 0.0 1009228
07:00+26e227496 0.0 1011226
10:00+28ne237180 0.3 1011614
13:00+28ne447424 0.1 1008628
16:00+28ne55779 0.9 1008658
19:00+27ene34792 0.5 1010596
22:00+26ene22804 1.9 1011210
13 may, thu
thu1301:00+26e23785 1.7 1009314
04:00+26e23809 2.6 1009339
07:00+26ene22787 0.1 1011391
10:00+28nne22726 0.1 1011694
13:00+28ne557214 0.0 1007671
16:00+28ne447415 0.1 1007608
19:00+27ene34772 0.0 1009523
22:00+27e34792 0.0 1010443
14 may, fri
fri1401:00+26e33799 0.0 1009360
04:00+26e34787 0.0 1008343
07:00+26ese347518 0.0 1010361
10:00+29ene44675 0.0 1010820
13:00+29ne667146 0.0 1007823
16:00+28ne567456 0.1 1007654
19:00+27e447616 0.1 1008557
22:00+27ese23775 0.1 1009281
15 may, sat
sat1501:00+26ese23765 0.0 1008276
04:00+26ese237483 0.1 1008240
07:00+27ese34733 0.0 1010331
10:00+30e24655 0.0 1009848
13:00+29ne566929 0.0 1007825
16:00+29ene556911 0.1 1006773
19:00+28se447797 0.0 1007482
22:00+27sse227715 0.0 1009381
16 may, sun
sun1601:00+26se117780 0.0 1008234
04:00+26ese217765 0.0 1008163
07:00+27ese22735 0.0 1009244
10:00+30e146737 0.0 1009848
13:00+29se147122 0.2 1007768
16:00+29s237341 0.4 1007673
19:00+28sw117690 0.4 1009450
22:00+27e117747 0.4 1009349